Weather Roundup
Issued by NWS

Home | Current Version | Previous Version | Graphics & Text | Print | Product List | Glossary Off
Versions: 1 2 3 4 5 6 7 8 9 10 11 12 13 14 15 16 17 18 19 20 21 22 23 24 25 26 27 28 29 30 31 32 33 34 35 36 37 38 39 40 41 42 43 44 45 46 47 48 49 50

000
NZUS93 KARX 240359
HRRWXR

CURRENT HOURLY OBSERVATIONS ACROSS
MUCH OF THE UPPER MISSISSIPPI VALLEY
NATIONAL WEATHER SERVICE LA CROSSE WI
1100 PM CDT THU OCT 23 2014


...SOUTHEAST MINNESOTA...


CITY           SKY/WX    TMP DP  RH WIND       PRES   REMARKS
ROCHESTER      FOG       47  46  97 S8        30.02S VSB 1/4
ROCHESTER/MAYO FAIR      47  46  98 SE7       30.01F
WINONA         CLOUDY    52  50  93 CALM      30.03S
AUSTIN         DRZL/FOG  48  46  93 S3        30.01F VSB<1/4
ALBERT LEA     CLEAR     50  48  93 S3        30.00F FOG
DODGE CENTER   PTCLDY    50  48  93 S12       30.00F FOG
PRESTON        FOG       47  46  97 S7        30.03S VSB 1/4
OWATONNA       CLEAR     52  48  87 SE10      29.98F
FARIBAULT      CLEAR     52  48  87 S6        29.98F
$$

...ELSEWHERE IN MINNESOTA...


CITY           SKY/WX    TMP DP  RH WIND       PRES   REMARKS
MINNEAPOLIS    CLEAR     50  48  93 E6        29.96F
INTNL FALLS    PTCLDY    47  39  74 VRB3      29.83S
DULUTH         CLEAR     48  45  89 S7        29.92F
RED WING       CLOUDY    50  48  93 SE7       29.98F FOG
REDWOOD FALLS  PTCLDY    51  42  71 S9        29.94S
MANKATO        CLEAR     48  37  66 SE8       29.97S
WORTHINGTON    MOCLDY    54  43  66 S12       29.98S
FAIRMONT       CLEAR     48  37  66 S6        29.98S
$$

...SOUTHWEST WISCONSIN...


CITY           SKY/WX    TMP DP  RH WIND       PRES   REMARKS
LA CROSSE      CLOUDY    51  50  96 S3        30.03S FOG
PRAIRIE DU CHI CLOUDY    50  49  95 CALM      30.04F FOG
BOSCOBEL       FOG       50  49  96 CALM      30.05F VSB 1/2
LONE ROCK      FOG       52  48  86 CALM      30.05S VSB 1/2
PLATTEVILLE    CLOUDY    50  49  97 CALM      30.06S
FORT MC COY    CLOUDY    47  47  99 CALM      30.04F FOG
CAMP DOUGLAS   CLOUDY    46  46 100 CALM      30.04S FOG
VIROQUA        CLOUDY    47  47 100 CALM      30.04F VSB 1/4
WIS DELLS      CLOUDY    47  46  95 CALM      30.04S FOG
$$

...ELSEWHERE IN WISCONSIN...


CITY           SKY/WX    TMP DP  RH WIND       PRES   REMARKS
MILWAUKEE      CLOUDY    51  47  86 S5        30.06F
MADISON        CLOUDY    51  49  92 CALM      30.04F FOG
GREEN BAY      CLOUDY    49  48  97 S3        30.02F FOG
EAU CLAIRE     CLOUDY    50  48  93 S8        30.01S
BLACK RVR FLS  FOG       48  48 100 CALM      30.03S VSB 3/4
MEDFORD        CLOUDY    46  46 100 SW3       30.02S FOG
WAUSAU         FOG       46  46 100 CALM      30.01F VSB 1/4
WIS RAPIDS     CLOUDY    47  46  97 SW3       30.04S FOG
MARSHFIELD     FOG       47  46  97 SW5       30.02F VSB 1/2
RICE LAKE      CLOUDY    50  49  95 S7        30.01S FOG
$$

...NORTHEAST IOWA...


CITY           SKY/WX    TMP DP  RH WIND       PRES   REMARKS
DECORAH        FOG       50  50 100 SW3       30.04R VSB 1/4
MASON CITY     FOG       43  43 100 S8        30.03S VSB 1
CHARLES CITY   FOG       46  46 100 SE5       30.04S VSB<1/4
OELWEIN        FOG       43  43 100 SE6       30.05S VSB<1/4
$$

...ELSEWHERE IN IOWA...


CITY           SKY/WX    TMP DP  RH WIND       PRES   REMARKS
DES MOINES     CLEAR     55  53  93 S9        30.03F FOG
IOWA CITY      FOG       46  46 100 CALM      30.07S VSB 1/4
FORT DODGE     CLEAR     45  39  81 CALM      30.02S
$$

...NORTHERN ILLINOIS...


CITY           SKY/WX    TMP DP  RH WIND       PRES   REMARKS
CHICAGO-OHARE  CLOUDY    54  43  66 S8        30.06F
CHICAGO-MIDWAY CLOUDY    57  43  59 S6        30.07F
MOLINE         CLOUDY    56  49  77 W5        30.05F
ROCKFORD       CLOUDY    52  48  86 CALM      30.08S
PEORIA         CLOUDY    58  46  64 SW6       30.08S
$$

NOTE: "FAIR" INDICATES FEW OR NO CLOUDS BELOW 12,000 FEET WITH NO
SIGNIFICANT WEATHER AND/OR OBSTRUCTIONS TO VISIBILITY. WIND
SPEEDS ARE IN MILES-PER-HOUR.



USA.gov is the U.S. government's official web portal to all federal, state and local government web resources and services.